Terminal Aerodrome Forecast
Issued by NWS

Home | Current Version | Previous Version | Graphics & Text | Print | Product List | Glossary On
Versions: 1 2 3 4 5 6 7 8 9 10 11 12 13 14 15 16 17 18 19 20 21 22 23 24 25 26 27 28 29 30 31 32 33 34 35 36
611
FTUS43 KLOT 240300 AAB
TAFORD
TAF AMD
KORD 240300Z 2403/2506 30015G25KT 2SM TSRA BKN015 OVC040CB
     FM240400 12008KT 6SM -SHRA VCTS BKN040CB
     FM240600 18006KT P6SM SCT030 BKN250
     FM241000 18006KT P6SM VCTS BKN025CB
     FM241300 21012G19KT P6SM SCT040
     FM242200 24012G19KT P6SM VCTS BKN040CB
     FM250200 27008KT P6SM SCT040 BKN250=

USA.gov is the U.S. government's official web portal to all federal, state and local government web resources and services.